When you browse on this site, cookies collect data to enhance your experience and personalize the content and advertising you see.
Visit our Privacy Policy to learn more. By continuing to use the site, you agree to this use of cookies and data.
  • en Suisse
  • Liste des pays
  • À 7 jours
  • Température de l'eau
  • Carte météo
  • Widgets météo
  • user-avatar
    Se connecter

    Météo par heure à Tacoma

    Ce jour, 5 Juin, Vendredi

    Heure Température Précipitation Vent Pression Humidité
    00:00 +6°C° 0 mm 1 m/s 618 mmHg 70%
    01:00 +6°C° 0 mm 1 m/s 618 mmHg 70%
    02:00 +6°C° 0 mm 1 m/s 618 mmHg 69%
    03:00 +6°C° 0 mm 1 m/s 618 mmHg 68%
    04:00 +6°C° 0 mm 1 m/s 617 mmHg 66%
    05:00 +6°C° 0 mm 1 m/s 617 mmHg 64%
    06:00 +8°C° 0 mm 1 m/s 618 mmHg 58%
    07:00 +10°C° 0 mm 1 m/s 618 mmHg 53%
    08:00 +13°C° 0 mm 1 m/s 619 mmHg 47%
    09:00 +14°C° 0 mm 1 m/s 619 mmHg 44%
    10:00 +16°C° 0 mm 2 m/s 619 mmHg 40%
    11:00 +18°C° 0 mm 2 m/s 619 mmHg 37%
    12:00 +18°C° 0 mm 2 m/s 619 mmHg 37%
    13:00 +19°C° 0 mm 2 m/s 618 mmHg 37%
    14:00 +20°C° 0 mm 3 m/s 617 mmHg 37%
    15:00 +20°C° 0 mm 3 m/s 617 mmHg 40%
    16:00 +20°C° 0 mm 3 m/s 617 mmHg 43%
    17:00 +21°C° 0 mm 4 m/s 616 mmHg 46%
    18:00 +19°C° 0 mm 3 m/s 615 mmHg 55%
    19:00 +17°C° 0 mm 2 m/s 614 mmHg 64%
    20:00 +15°C° 0 mm 1 m/s 613 mmHg 72%
    21:00 +14°C° 0 mm 1 m/s 613 mmHg 74%
    22:00 +13°C° 0 mm 1 m/s 612 mmHg 76%
    23:00 +12°C° 0 mm 1 m/s 612 mmHg 77%

    Demain, 6 Juin, Samedi

    Heure Température Précipitation Vent Pression Humidité
    00:00 +12°C° 0 mm 1 m/s 612 mmHg 78%
    01:00 +12°C° 0 mm 1 m/s 612 mmHg 79%
    02:00 +12°C° 0 mm 1 m/s 612 mmHg 80%
    03:00 +12°C° 0.3 mm 2 m/s 612 mmHg 83%
    04:00 +10°C° 0.3 mm 2 m/s 612 mmHg 86%
    05:00 +10°C° 0.3 mm 3 m/s 612 mmHg 89%
    06:00 +13°C° 0 mm 2 m/s 613 mmHg 80%
    07:00 +14°C° 0 mm 2 m/s 613 mmHg 71%
    08:00 +16°C° 0 mm 2 m/s 614 mmHg 61%
    09:00 +18°C° 0 mm 2 m/s 614 mmHg 55%
    10:00 +19°C° 0 mm 2 m/s 614 mmHg 48%
    11:00 +22°C° 0 mm 1 m/s 615 mmHg 41%
    12:00 +19°C° 1.4 mm 2 m/s 614 mmHg 53%
    13:00 +18°C° 1.4 mm 2 m/s 613 mmHg 65%
    14:00 +16°C° 1.4 mm 2 m/s 612 mmHg 76%
    15:00 +13°C° 6.7 mm 3 m/s 611 mmHg 82%
    16:00 +11°C° 6.7 mm 3 m/s 610 mmHg 87%
    17:00 +9°C° 6.7 mm 3 m/s 609 mmHg 92%
    18:00 +9°C° 2.1 mm 3 m/s 609 mmHg 92%
    19:00 +9°C° 2.1 mm 2 m/s 609 mmHg 92%
    20:00 +9°C° 2.1 mm 1 m/s 610 mmHg 91%
    21:00 +9°C° 0 mm 1 m/s 609 mmHg 91%
    22:00 +9°C° 0 mm 1 m/s 609 mmHg 91%
    23:00 +8°C° 0 mm 2 m/s 609 mmHg 91%

    Après-demain, 7 Juin, Dimanche

    Heure Température Précipitation Vent Pression Humidité
    00:00 +7°C° 0 mm 2 m/s 609 mmHg 91%
    01:00 +7°C° 0 mm 2 m/s 609 mmHg 90%
    02:00 +7°C° 0 mm 2 m/s 609 mmHg 89%
    03:00 +7°C° 0.1 mm 2 m/s 609 mmHg 89%
    04:00 +6°C° 0.1 mm 2 m/s 608 mmHg 89%
    05:00 +6°C° 0.1 mm 2 m/s 608 mmHg 89%
    06:00 +7°C° 0 mm 3 m/s 609 mmHg 81%
    07:00 +8°C° 0 mm 3 m/s 609 mmHg 73%
    08:00 +8°C° 0 mm 4 m/s 609 mmHg 65%
    09:00 +10°C° 0 mm 4 m/s 609 mmHg 57%
    10:00 +12°C° 0 mm 5 m/s 610 mmHg 49%
    11:00 +14°C° 0 mm 5 m/s 610 mmHg 42%
    12:00 +13°C° 0.3 mm 6 m/s 610 mmHg 45%
    13:00 +12°C° 0.3 mm 7 m/s 610 mmHg 48%
    14:00 +12°C° 0.3 mm 7 m/s 609 mmHg 50%
    15:00 +10°C° 0.1 mm 6 m/s 610 mmHg 54%
    16:00 +9°C° 0.1 mm 6 m/s 610 mmHg 57%
    17:00 +8°C° 0.1 mm 5 m/s 610 mmHg 61%
    18:00 +7°C° 0 mm 4 m/s 610 mmHg 66%
    19:00 +5°C° 0 mm 4 m/s 610 mmHg 70%
    20:00 +3°C° 0 mm 3 m/s 610 mmHg 75%
    21:00 +3°C° 0 mm 3 m/s 610 mmHg 76%
    22:00 +2°C° 0 mm 3 m/s 610 mmHg 77%
    23:00 +2°C° 0 mm 3 m/s 610 mmHg 78%

    8 Juin, Lundi

    Heure Température Précipitation Vent Pression Humidité
    00:00 +2°C° 0.1 mm 3 m/s 610 mmHg 78%
    01:00 +2°C° 0.1 mm 3 m/s 610 mmHg 79%
    02:00 +2°C° 0.1 mm 3 m/s 610 mmHg 80%
    03:00 +1°C° 0.2 mm 3 m/s 610 mmHg 82%
    04:00 0°C° 0.2 mm 4 m/s 610 mmHg 84%
    05:00 0°C° 0.2 mm 4 m/s 611 mmHg 87%
    06:00 -1°C° 0.1 mm 6 m/s 611 mmHg 82%
    07:00 0°C° 0.1 mm 8 m/s 611 mmHg 78%
    08:00 0°C° 0.1 mm 9 m/s 612 mmHg 73%
    09:00 +1°C° 0.1 mm 10 m/s 612 mmHg 70%
    10:00 +2°C° 0.1 mm 10 m/s 613 mmHg 67%
    11:00 +3°C° 0.1 mm 10 m/s 613 mmHg 63%
    12:00 +3°C° 0 mm 11 m/s 614 mmHg 63%
    13:00 +3°C° 0 mm 11 m/s 615 mmHg 63%
    14:00 +3°C° 0 mm 11 m/s 615 mmHg 62%
    15:00 +3°C° 0.1 mm 12 m/s 615 mmHg 64%
    16:00 +1°C° 0.1 mm 13 m/s 616 mmHg 67%
    17:00 +1°C° 0.1 mm 13 m/s 616 mmHg 69%
    18:00 0°C° 0 mm 13 m/s 616 mmHg 68%
    19:00 0°C° 0 mm 12 m/s 616 mmHg 67%
    20:00 0°C° 0 mm 12 m/s 617 mmHg 67%
    21:00 -1°C° 0 mm 12 m/s 617 mmHg 69%
    22:00 -1°C° 0 mm 12 m/s 617 mmHg 70%
    23:00 -1°C° 0 mm 12 m/s 617 mmHg 72%

    9 Juin, Mardi

    Heure Température Précipitation Vent Pression Humidité
    00:00 -2°C° 0 mm 11 m/s 617 mmHg 72%
    01:00 -2°C° 0 mm 10 m/s 617 mmHg 73%
    02:00 -1°C° 0 mm 9 m/s 617 mmHg 74%
    03:00 -2°C° 0 mm 8 m/s 617 mmHg 75%
    04:00 -2°C° 0 mm 8 m/s 618 mmHg 76%
    05:00 -2°C° 0 mm 7 m/s 618 mmHg 77%
    06:00 -1°C° 0 mm 7 m/s 618 mmHg 71%
    07:00 0°C° 0 mm 7 m/s 618 mmHg 65%
    08:00 +3°C° 0 mm 7 m/s 618 mmHg 60%
    09:00 +4°C° 0 mm 7 m/s 619 mmHg 56%
    10:00 +6°C° 0 mm 7 m/s 619 mmHg 53%
    11:00 +8°C° 0 mm 7 m/s 619 mmHg 50%
    12:00 +9°C° 0 mm 8 m/s 619 mmHg 50%
    13:00 +10°C° 0 mm 8 m/s 619 mmHg 50%
    14:00 +11°C° 0 mm 9 m/s 620 mmHg 51%
    15:00 +10°C° 0 mm 9 m/s 619 mmHg 53%
    16:00 +10°C° 0 mm 9 m/s 619 mmHg 55%
    17:00 +8°C° 0 mm 9 m/s 619 mmHg 57%
    18:00 +8°C° 0 mm 7 m/s 619 mmHg 63%
    19:00 +7°C° 0 mm 6 m/s 619 mmHg 68%
    20:00 +6°C° 0 mm 4 m/s 619 mmHg 73%
    21:00 +6°C° 0 mm 4 m/s 618 mmHg 77%
    22:00 +5°C° 0 mm 4 m/s 618 mmHg 80%
    23:00 +5°C° 0 mm 3 m/s 618 mmHg 83%

    10 Juin, Mercredi

    Heure Température Précipitation Vent Pression Humidité
    00:00 +5°C° 0 mm 3 m/s 618 mmHg 83%
    01:00 +5°C° 0 mm 3 m/s 618 mmHg 83%
    02:00 +5°C° 0 mm 3 m/s 618 mmHg 83%
    03:00 +5°C° 0 mm 3 m/s 618 mmHg 84%
    04:00 +5°C° 0 mm 3 m/s 618 mmHg 84%
    05:00 +5°C° 0 mm 3 m/s 619 mmHg 84%
    06:00 +7°C° 0 mm 3 m/s 619 mmHg 82%
    07:00 +7°C° 0 mm 2 m/s 619 mmHg 79%
    08:00 +8°C° 0 mm 2 m/s 620 mmHg 77%
    09:00 +10°C° 0 mm 3 m/s 620 mmHg 71%
    10:00 +11°C° 0 mm 3 m/s 621 mmHg 64%
    11:00 +12°C° 0 mm 3 m/s 621 mmHg 58%
    12:00 +13°C° 0.2 mm 3 m/s 621 mmHg 55%
    13:00 +14°C° 0.2 mm 4 m/s 622 mmHg 52%
    14:00 +15°C° 0.2 mm 4 m/s 622 mmHg 49%
    15:00 +14°C° 0.6 mm 4 m/s 621 mmHg 56%
    16:00 +12°C° 0.6 mm 4 m/s 621 mmHg 63%
    17:00 +11°C° 0.6 mm 3 m/s 621 mmHg 70%
    18:00 +10°C° 0.5 mm 3 m/s 620 mmHg 75%
    19:00 +9°C° 0.5 mm 2 m/s 620 mmHg 80%
    20:00 +8°C° 0.5 mm 2 m/s 620 mmHg 85%
    21:00 +8°C° 0.1 mm 1 m/s 621 mmHg 88%
    22:00 +7°C° 0.1 mm 1 m/s 621 mmHg 92%
    23:00 +5°C° 0.1 mm 0 m/s 621 mmHg 95%
    Voir plus